Location: Calberlah
(52.4230°N, 10.6240°E)
Time: 00:55:08
(UTC+00:00)

Cosmos 1656 - Pass Details

Date: 19 May 2025
Orbit: 796 x 848 km, 71.1° (Epoch: 15 June)

Event Time Altitude Azimuth Distance (km) Brightness Sun altitude
Rises 19:48:47 0° 327° (NNW) 3,412 8.8 -5.0°
Reaches altitude 10° 19:51:17 10° 323° (NW) 2,467 7.9 -5.3°
Maximum altitude 19:56:47 56° 247° (WSW) 989 4.3 -5.9°
Drops below altitude 10° 20:02:12 10° 170° (S) 2,419 5.6 -6.5°
Enters shadow 20:03:51 - 168° (SSE) 3,040 6.1 -6.7°
